Time,TemperatureF,DewpointF,PressureIn,WindDirection,WindDirectionDegrees,WindSpeedMPH,WindSpeedGustMPH,Humidity,HourlyPrecipIn,Conditions,Clouds,dailyrainin,SoftwareType,DateUTC
2013-04-10 00:00:00,65.5,55.6,30.05,West,270,0.0,0.0,70,0.00,,,0.00,WUHU216TE923,2013-04-10 04:00:00,
2013-04-10 00:05:00,65.3,55.4,30.05,West,270,0.0,0.0,70,0.00,,,0.00,WUHU216TE923,2013-04-10 04:05:00,
2013-04-10 00:10:00,65.3,55.4,30.05,West,270,0.0,0.0,70,0.00,,,0.00,WUHU216TE923,2013-04-10 04:10:00,
2013-04-10 00:15:00,65.3,55.4,30.05,West,270,0.0,0.0,70,0.00,,,0.00,WUHU216TE923,2013-04-10 04:15:00,
2013-04-10 00:20:00,65.1,55.6,30.05,West,270,0.0,0.0,71,0.00,,,0.00,WUHU216TE923,2013-04-10 04:20:00,
2013-04-10 00:25:00,64.9,55.4,30.05,West,270,0.0,0.0,71,0.00,,,0.00,WUHU216TE923,2013-04-10 04:25:00,
2013-04-10 00:30:00,64.9,55.4,30.05,West,270,0.0,0.0,71,0.00,,,0.00,WUHU216TE923,2013-04-10 04:30:00,
2013-04-10 00:35:00,64.6,55.1,30.05,West,270,0.0,0.0,71,0.00,,,0.00,WUHU216TE923,2013-04-10 04:35:00,
2013-04-10 00:40:00,64.4,54.9,30.05,West,270,0.0,0.0,71,0.00,,,0.00,WUHU216TE923,2013-04-10 04:40:00,
2013-04-10 00:45:00,64.4,54.9,30.05,West,270,0.0,0.0,71,0.00,,,0.00,WUHU216TE923,2013-04-10 04:45:00,
2013-04-10 00:50:00,64.2,55.1,30.05,West,270,0.0,0.0,72,0.00,,,0.00,WUHU216TE923,2013-04-10 04:50:00,
2013-04-10 00:55:00,64.2,55.1,30.05,West,270,0.0,0.0,72,0.00,,,0.00,WUHU216TE923,2013-04-10 04:55:00,
2013-04-10 01:00:00,64.2,55.1,30.05,West,270,0.0,0.0,72,0.00,,,0.00,WUHU216TE923,2013-04-10 05:00:00,
2013-04-10 01:05:00,64.2,55.5,30.05,West,270,0.0,0.0,73,0.00,,,0.00,WUHU216TE923,2013-04-10 05:05:00,
2013-04-10 01:10:00,64.2,55.5,30.05,West,270,0.0,0.0,73,0.00,,,0.00,WUHU216TE923,2013-04-10 05:10:00,
2013-04-10 01:15:00,64.2,55.5,30.05,West,270,0.0,0.0,73,0.00,,,0.00,WUHU216TE923,2013-04-10 05:15:00,
2013-04-10 01:20:00,63.9,55.2,30.05,West,270,0.0,0.0,73,0.00,,,0.00,WUHU216TE923,2013-04-10 05:20:00,
2013-04-10 01:25:00,64.2,55.5,30.05,West,270,0.0,0.0,73,0.00,,,0.00,WUHU216TE923,2013-04-10 05:25:00,
2013-04-10 01:30:00,64.0,55.3,30.05,West,270,0.0,0.0,73,0.00,,,0.00,WUHU216TE923,2013-04-10 05:30:00,
2013-04-10 01:35:00,63.9,55.2,30.05,West,270,0.0,0.0,73,0.00,,,0.00,WUHU216TE923,2013-04-10 05:35:00,
2013-04-10 01:40:00,64.2,55.5,30.04,West,270,0.0,0.0,73,0.00,,,0.00,WUHU216TE923,2013-04-10 05:40:00,
2013-04-10 01:45:00,64.2,55.5,30.04,West,270,0.0,0.0,73,0.00,,,0.00,WUHU216TE923,2013-04-10 05:45:00,
2013-04-10 01:50:00,64.2,55.5,30.04,West,270,0.0,0.0,73,0.00,,,0.00,WUHU216TE923,2013-04-10 05:50:00,
2013-04-10 01:55:00,64.0,55.3,30.04,NNE,23,0.2,1.5,73,0.00,,,0.00,WUHU216TE923,2013-04-10 05:55:00,
2013-04-10 02:00:00,64.6,56.3,30.04,NE,45,0.4,1.5,74,0.00,,,0.00,WUHU216TE923,2013-04-10 06:00:00,
2013-04-10 02:05:00,64.6,56.3,30.04,ENE,68,0.3,0.4,74,0.00,,,0.00,WUHU216TE923,2013-04-10 06:05:00,
2013-04-10 02:10:00,64.9,56.2,30.04,WSW,248,0.0,0.3,73,0.00,,,0.00,WUHU216TE923,2013-04-10 06:10:00,
2013-04-10 02:15:00,64.9,56.2,30.04,WNW,293,0.0,0.0,73,0.00,,,0.00,WUHU216TE923,2013-04-10 06:15:00,
2013-04-10 02:20:00,64.9,55.8,30.03,SW,225,0.0,0.0,72,0.00,,,0.00,WUHU216TE923,2013-04-10 06:20:00,
2013-04-10 02:25:00,64.9,55.8,30.03,SW,225,0.0,0.0,72,0.00,,,0.00,WUHU216TE923,2013-04-10 06:25:00,
2013-04-10 02:30:00,65.1,56.0,30.03,SW,225,0.0,0.0,72,0.00,,,0.00,WUHU216TE923,2013-04-10 06:30:00,
2013-04-10 02:35:00,65.1,56.0,30.03,NW,315,0.0,0.0,72,0.00,,,0.00,WUHU216TE923,2013-04-10 06:35:00,
2013-04-10 02:40:00,64.9,55.8,30.02,NW,315,0.0,0.0,72,0.00,,,0.00,WUHU216TE923,2013-04-10 06:40:00,
2013-04-10 02:45:00,64.9,55.8,30.02,NW,315,0.0,0.0,72,0.00,,,0.00,WUHU216TE923,2013-04-10 06:45:00,
2013-04-10 02:50:00,64.6,55.5,30.02,South,180,0.0,0.0,72,0.00,,,0.00,WUHU216TE923,2013-04-10 06:50:00,
2013-04-10 02:55:00,64.6,55.5,30.02,South,180,0.0,0.0,72,0.00,,,0.00,WUHU216TE923,2013-04-10 06:55:00,
2013-04-10 03:00:00,64.2,55.1,30.02,NE,45,0.2,1.6,72,0.00,,,0.00,WUHU216TE923,2013-04-10 07:00:00,
2013-04-10 03:05:00,64.2,55.5,30.02,NE,45,0.3,1.6,73,0.00,,,0.00,WUHU216TE923,2013-04-10 07:05:00,
2013-04-10 03:10:00,64.2,55.5,30.02,NE,45,0.3,0.3,73,0.00,,,0.00,WUHU216TE923,2013-04-10 07:10:00,
2013-04-10 03:15:00,64.2,55.5,30.02,NE,45,0.3,0.3,73,0.00,,,0.00,WUHU216TE923,2013-04-10 07:15:00,
2013-04-10 03:20:00,63.9,55.2,29.99,NNE,23,0.0,0.3,73,0.00,,,0.00,WUHU216TE923,2013-04-10 07:20:00,